Meteo Giornale » Osservazioni meteo Italia » Falconara

ore: 02:50 - Osservazioni Meteo Falconara
Lat. 43° 37' N Lon. 13° 22' E Alt. 12 metri s.l.m.

poco_nuvoloso Europe/Rome

7 °C

Poco Nuvoloso

Temp. 24 Ore

7 °C

13 °C

Sud-Ovest

9.3 Km/h

Dew point 4 °C

Umidità 81 %

Visibilità  10 Km

Il sole sorge alle ore 07:04

Il sole tramonta alle ore 16:39

Data e Ora Cielo e Fenomeni T °C DP °C Um. % Pres. hPa Vis. km Vento km/h
Oggi h: 02:50 poco_nuvoloso Poco Nuvoloso 7 4 81 1015 10 SO 9.3
Oggi h: 01:50 nuvoloso Nuvoloso 8 6 87 1015 10 SO 9.3
Oggi h: 00:50 poco_nuvoloso Poco Nuvoloso 8 5 81 1016 10 S 9.3
Ieri h: 23:50 poco_nuvoloso Poco Nuvoloso 8 5 81 1016 10 N 5.5
Ieri h: 22:50 sereno Sereno 8 6 87 1016 10 N 5.5
Ieri h: 21:50 poco_nuvoloso Poco Nuvoloso 8 6 87 1016 10 O 9.3
Ieri h: 20:50 molto_nuvoloso Molto Nuvoloso 10 7 81 1016 10 O 9.3
Ieri h: 19:50 molto_nuvoloso Molto Nuvoloso 10 7 81 1016 10 O/SO 9.3
Ieri h: 18:50 nuvoloso Nuvoloso 10 8 87 1016 10 O 9.3
Ieri h: 17:50 molto_nuvoloso Molto Nuvoloso 11 8 81 1016 10 O 9.3
Ieri h: 16:50 molto_nuvoloso Molto Nuvoloso 11 8 81 1016 10 O 7.4
Ieri h: 15:50 molto_nuvoloso Molto Nuvoloso 11 8 81 1016 10 O/NO 13
Ieri h: 14:50 molto_nuvoloso Molto Nuvoloso 11 8 81 1016 10 NO 16.7
Ieri h: 13:50 molto_nuvoloso Molto Nuvoloso 11 8 81 1016 10 NO 18.5
Ieri h: 12:50 nuvoloso Nuvoloso 13 9 76 1016 10 NO 18.5
Ieri h: 11:50 nuvoloso Nuvoloso 12 9 81 1017 10 NO 18.5
Ieri h: 10:50 molto_nuvoloso Molto Nuvoloso 11 8 81 1017 10 O/NO 20.3
Ieri h: 09:50 molto_nuvoloso Molto Nuvoloso 11 8 81 1017 10 O/NO 18.5
Ieri h: 08:50 nuvoloso Nuvoloso 11 8 81 1017 10 O 11.1
Ieri h: 07:50 nuvoloso Nuvoloso 9 7 87 1016 10 O 11.1
Ieri h: 06:50 molto_nuvoloso Molto Nuvoloso 10 7 81 1016 10 O 13
Ieri h: 05:50 molto_nuvoloso Molto Nuvoloso 12 8 76 1016 10 N/NO 16.7
Ieri h: 04:50 molto_nuvoloso Molto Nuvoloso 10 8 87 1016 10 N 5.5
Ieri h: 03:50 molto_nuvoloso Molto Nuvoloso 10 8 87 1016 10 O 7.4